Mobridge, SD

8:58 PM CDT on October 18, 2019 (GMT -0500)
Mobridge Municipal

Weather History for KMBG - September, 2019

Change the Weather History Date:

Friday, September 20, 2019

  Actual Average Record
Temperature  
Mean Temperature 79 °F 59 °F  
Max Temperature 86 °F 72 °F 95 °F (1960)
Min Temperature 71 °F 46 °F 25 °F (1918)
Degree Days  
Heating Degree Days 0    
Month to date heating degree days 31  
Since 1 July heating degree days 53  
Cooling Degree Days 14    
Month to date cooling degree days 73  
Year to date cooling degree days 646  
Growing Degree Days 28 (Base 50)    
Moisture  
Dew Point 66 °F    
Average Humidity 70    
Maximum Humidity 84    
Minimum Humidity 55    
Precipitation  
Precipitation T in 0.05 in 2.10 in (2018)
Month to date precipitation 3.10 1.02  
Year to date precipitation 23.62 14.93  
Snow  
Snow 0.00 in - - ()
Month to date snowfall 0.0  
Since 1 July snowfall 0.0  
Snow Depth 0.00 in    
Sea Level Pressure  
Sea Level Pressure 29.67 in    
Wind  
Wind Speed 16 mph (SSE)    
Max Wind Speed 30 mph    
Max Gust Speed 46 mph    
Visibility 10 miles    
Events      
T = Trace of Precipitation, MM = Missing Value Source: NWS Daily Summary

Daily Weather History Graph

Daily Weather History Graph

Search for Another Location

Airport or City:

Astronomy

Sep. 20, 2019 Rise Set
Actual Time 7:25 AM CDT 7:43 PM CDT
Civil Twilight 6:56 AM CDT 8:12 PM CDT
Nautical Twilight 6:21 AM CDT 8:47 PM CDT
Astronomical Twilight 5:45 AM CDT 9:23 PM CDT
Moon 11:16 PM CDT (9/20) 1:49 PM CDT (9/20)
Length of Visible Light 13h 16m
Length of Day
12h 17m
Waning Gibbous, 65% of the Moon is Illuminated
Sep 20
Waning Gibbous
Sep 21
Last Quarter
Sep 28
New
Oct 5
First Quarter
Oct 13
Full

Hourly Weather History & Observations

Time (CDT) Temp. Heat Index Dew Point Humidity Pressure Visibility Wind Dir Wind Speed Gust Speed Precip Events Conditions
12:52 AM 73.0 °F - 66.0 °F 79% 29.75 in 10.0 mi SE 16.1 mph 25.3 mph N/A   Partly Cloudy
1:52 AM 73.0 °F - 66.0 °F 79% 29.75 in 10.0 mi SE 15.0 mph - N/A   Clear
2:52 AM 72.0 °F - 66.9 °F 84% 29.75 in 10.0 mi SE 12.7 mph - N/A   Clear
3:52 AM 71.1 °F - 66.0 °F 84% 29.74 in 10.0 mi SE 13.8 mph - N/A   Clear
4:52 AM 71.1 °F - 66.9 °F 87% 29.72 in 10.0 mi SE 12.7 mph - N/A   Clear
5:52 AM 71.1 °F - 66.9 °F 87% 29.72 in 10.0 mi SE 15.0 mph - N/A   Clear
6:52 AM 72.0 °F - 66.9 °F 84% 29.72 in 10.0 mi SE 16.1 mph - N/A   Clear
7:52 AM 72.0 °F - 66.0 °F 81% 29.71 in 10.0 mi SE 16.1 mph - N/A   Clear
8:52 AM 72.0 °F - 66.0 °F 81% 29.72 in 10.0 mi SE 12.7 mph - N/A   Clear
9:52 AM 75.0 °F - 66.9 °F 76% 29.73 in 10.0 mi South 11.5 mph - N/A   Clear
10:52 AM 78.1 °F - 66.9 °F 68% 29.71 in 9.0 mi SSE 18.4 mph 28.8 mph N/A   Clear
11:52 AM 81.0 °F 83.3 °F 66.9 °F 62% 29.70 in 10.0 mi SSE 17.3 mph - N/A   Clear
12:52 PM 82.9 °F 85.0 °F 66.0 °F 56% 29.67 in 10.0 mi SSE 18.4 mph - N/A   Clear
1:52 PM 84.9 °F 87.6 °F 66.9 °F 55% 29.65 in 10.0 mi SSE 24.2 mph 34.5 mph N/A   Clear
2:52 PM 84.9 °F 88.2 °F 68.0 °F 57% 29.65 in 7.0 mi South 17.3 mph - N/A   Partly Cloudy
3:52 PM 82.9 °F 85.4 °F 66.9 °F 58% 29.65 in 7.0 mi South 17.3 mph 27.6 mph N/A   Partly Cloudy
4:52 PM 82.0 °F 84.9 °F 68.0 °F 62% 29.62 in 10.0 mi SSE 15.0 mph - 0.00 in   Mostly Cloudy
5:52 PM 79.0 °F - 68.0 °F 69% 29.61 in 10.0 mi SE 13.8 mph - 0.00 in   Partly Cloudy
6:52 PM 79.0 °F - 64.9 °F 62% 29.59 in 10.0 mi SE 12.7 mph - N/A   Clear
7:52 PM 78.1 °F - 64.9 °F 64% 29.58 in 10.0 mi SSE 16.1 mph - N/A   Clear
8:52 PM 78.1 °F - 64.9 °F 64% 29.57 in 10.0 mi SSE 16.1 mph - N/A   Clear
9:52 PM 77.0 °F - 64.9 °F 66% 29.57 in 10.0 mi SSE 17.3 mph 26.5 mph N/A   Clear
10:52 PM 75.9 °F - 64.0 °F 67% 29.57 in 10.0 mi SSE 17.3 mph - N/A   Clear
11:52 PM 75.0 °F - 63.0 °F 66% 29.55 in 10.0 mi SSE 17.3 mph 27.6 mph N/A   Clear